DW9007 Weather Reports


time (UTC)temp
C
wind
direction
speed
KPH
gust
KPH
rain 1hr
cm
rain 24hr
cm
rain mn
cm
humidity
%
barometer
mb
20260510224558 25 26 0.0 0.0 0.00 0.00 0.00 60 1014.4
20260510223056 25 26 0.0 0.0 0.00 0.00 0.00 59 1014.6
20260510221539 26 26 0.0 0.0 0.00 0.00 0.00 54 1014.6
20260510220038 27 69 0.0 0.0 0.00 0.00 0.00 53 1014.7
20260510214518 27 332 0.0 0.0 0.00 0.00 0.00 55 1014.6
20260510213020 27 275 0.0 0.0 0.00 0.00 0.00 56 1014.6
20260510211554 26 267 0.0 0.0 0.00 0.00 0.00 59 1014.7
20260510210053 26 254 0.0 0.0 0.00 0.00 0.00 60 1014.7
20260510204535 26 60 0.0 4.8 0.00 0.00 0.00 60 1014.7
20260510203032 26 279 0.0 1.6 0.00 0.00 0.00 62 1014.8
20260510201512 25 98 0.0 0.0 0.00 0.00 0.00 62 1014.9
20260510200011 25 355 0.0 6.4 0.00 0.00 0.00 65 1015.0
20260510194552 25 38 0.0 0.0 0.00 0.00 0.00 66 1015.0
20260510193051 25 314 0.0 0.0 0.00 0.00 0.00 67 1015.2
20260510191533 25 306 0.0 0.0 0.00 0.00 0.00 66 1015.1
20260510190042 25 288 0.0 0.0 0.00 0.00 0.00 67 1015.3
20260510184508 24 81 0.0 0.0 0.00 0.00 0.00 72 1015.5
20260510183006 23 69 0.0 4.8 0.00 0.00 0.00 72 1015.6
20260510181610 23 269 0.0 3.2 0.00 0.00 0.00 74 1015.6
20260510180058 23 242 0.0 6.4 0.00 0.00 0.00 74 1015.7
20260510174545 23 240 1.6 6.4 0.00 0.00 0.00 75 1015.9
20260510173027 22 227 0.0 0.0 0.00 0.00 0.00 79 1016.2
20260510171528 22 15 0.0 4.8 0.00 0.00 0.00 83 1016.4
20260510170009 21 336 0.0 0.0 0.00 0.00 0.00 84 1016.5
20260510164508 21 88 0.0 0.0 0.00 0.00 0.00 85 1016.7
20260510163050 21 13 0.0 4.8 0.00 0.00 0.00 86 1016.7
20260510161550 21 338 0.0 3.2 0.00 0.00 0.00 87 1016.6
20260510160038 21 228 0.0 1.6 0.00 0.00 0.00 87 1016.7
20260510154547 20 227 0.0 3.2 0.00 0.00 0.00 89 1016.6
20260510153038 20 221 1.6 6.4 0.00 0.00 0.00 90 1016.5
20260510151519 18 88 0.0 0.0 0.00 0.00 0.00 91 1016.5
20260510150019 18 88 0.0 0.0 0.00 0.00 0.00 93 1016.7
20260510144541 18 85 0.0 1.6 0.00 0.00 0.00 93 1016.7
20260510143017 18 85 0.0 3.2 0.00 0.00 0.00 94 1016.9
20260510141517 18 67 0.0 0.0 0.00 0.00 0.00 95 1016.9
20260510140017 17 36 0.0 1.6 0.00 0.00 0.00 95 1016.9
20260510134516 17 36 0.0 0.0 0.00 0.00 0.00 95 1016.7
20260510133058 17 36 0.0 0.0 0.00 0.00 0.00 95 1016.7
20260510131557 17 36 0.0 0.0 0.00 0.00 0.00 96 1016.7
20260510130038 17 36 0.0 1.6 0.00 0.00 0.00 96 1016.4
20260510124541 17 36 0.0 0.0 0.00 0.00 0.00 96 1016.3
20260510123018 17 36 0.0 0.0 0.00 0.00 0.00 96 1015.9
20260510121516 17 36 0.0 0.0 0.00 0.00 0.00 96 1015.8
20260510120055 17 36 0.0 0.0 0.00 0.00 0.00 96 1015.4
20260510114554 17 36 0.0 0.0 0.00 0.00 0.00 96 1015.1
20260510113034 17 36 0.0 0.0 0.00 0.00 0.00 95 1014.9
20260510111535 17 36 0.0 0.0 0.00 0.00 0.00 95 1014.6
20260510110015 17 36 0.0 0.0 0.00 0.00 0.00 95 1014.3
20260510104509 17 36 0.0 1.6 0.00 0.00 0.00 95 1014.2
20260510103047 17 54 0.0 0.0 0.00 0.00 0.00 95 1013.9
20260510101552 17 54 0.0 3.2 0.00 0.00 0.00 95 1013.9
20260510100028 17 58 0.0 0.0 0.00 0.00 0.00 95 1013.8
20260510094528 17 58 0.0 3.2 0.00 0.00 0.00 95 1013.5
20260510093007 17 88 0.0 1.6 0.00 0.00 0.00 95 1013.3
20260510091507 17 17 0.0 3.2 0.00 0.00 0.00 95 1013.0
20260510090049 17 17 0.0 4.8 0.00 0.00 0.00 95 1013.1
20260510084559 17 250 0.0 1.6 0.00 0.00 0.00 95 1013.0
20260510083035 17 249 0.0 0.0 0.00 0.00 0.00 95 1012.8
20260510081535 17 249 0.0 0.0 0.00 0.00 0.00 95 1012.7
20260510080012 17 249 0.0 0.0 0.00 0.00 0.00 95 1012.5
20260510074512 17 249 0.0 0.0 0.00 0.00 0.00 95 1012.6
20260510073055 17 249 0.0 0.0 0.00 0.00 0.00 94 1012.5
20260510071555 17 249 0.0 0.0 0.00 0.00 0.00 95 1012.5
20260510070037 17 249 0.0 0.0 0.00 0.00 0.00 95 1012.7
20260510064535 17 249 0.0 0.0 0.00 0.00 0.00 95 1012.9
20260510063017 17 249 0.0 0.0 0.00 0.00 0.00 94 1012.9
20260510061515 17 249 0.0 0.0 0.00 0.00 0.00 94 1012.9
20260510060056 17 249 0.0 0.0 0.00 0.00 0.00 94 1013.0
20260510054555 17 249 0.0 0.0 0.00 0.00 0.00 94 1013.2
20260510053053 17 249 0.0 0.0 0.00 0.00 0.00 94 1013.1
20260510051544 17 249 0.0 0.0 0.00 0.00 0.00 94 1013.3
20260510050045 17 249 0.0 0.0 0.00 0.00 0.00 93 1013.2
20260510044547 17 249 0.0 0.0 0.00 0.00 0.00 93 1013.2
20260510043043 17 249 0.0 0.0 0.00 0.00 0.00 93 1013.4
20260510041540 17 249 0.0 0.0 0.00 0.00 0.00 93 1013.3
20260510040039 18 249 0.0 0.0 0.00 0.00 0.00 93 1013.3
20260510034537 18 249 0.0 0.0 0.00 0.00 0.00 92 1013.3
20260510033016 18 249 0.0 0.0 0.00 0.00 0.00 92 1013.3
20260510031517 18 249 0.0 0.0 0.00 0.00 0.00 91 1013.2
20260510030058 18 249 0.0 0.0 0.00 0.00 0.00 91 1013.3
20260510024555 18 249 0.0 0.0 0.00 0.00 0.00 90 1013.1
20260510023043 19 249 0.0 0.0 0.00 0.00 0.00 90 1013.1
20260510021538 19 249 0.0 0.0 0.00 0.00 0.00 89 1012.8
20260510020035 19 249 0.0 0.0 0.00 0.00 0.00 88 1012.6
20260510014532 19 249 0.0 0.0 0.00 0.00 0.00 88 1012.3
20260510013028 20 254 0.0 0.0 0.00 0.00 0.00 87 1012.0
20260510011527 20 254 0.0 0.0 0.00 0.00 0.00 85 1011.9
20260510010024 20 254 0.0 0.0 0.00 0.00 0.00 85 1011.5
20260510004521 20 254 0.0 0.0 0.00 0.00 0.00 84 1011.3
20260510003002 20 254 0.0 0.0 0.00 0.00 0.00 83 1011.2
20260510001600 21 254 0.0 0.0 0.00 0.00 0.00 83 1011.1
20260510000039 21 254 0.0 0.0 0.00 0.00 0.00 82 1011.0
20260509234539 21 254 0.0 0.0 0.00 0.00 0.00 81 1010.8
20260509233017 22 254 0.0 0.0 0.00 0.00 0.00 81 1010.7
20260509231515 22 254 0.0 0.0 0.00 0.00 0.00 79 1010.5
20260509230058 22 254 0.0 0.0 0.00 0.00 0.00 77 1010.5